Location: Bishop�s Knoyle
(51.0728°N, 2.1714°W)
Time: 10:32:44
(UTC+00:00)

Nauka - Pass Details

Date: 02 October 2021
Orbit: 417 x 423 km, 51.6° (Epoch: 19 October)

Event Time Altitude Azimuth Distance (km) Brightness Sun altitude
Rises 19:03:03 0° 285° (WNW) 2,366 ? -13.2°
Reaches altitude 10° 19:05:15 10° 277° (W) 1,501 ? -13.6°
Maximum altitude 19:08:22 36° 209° (SSW) 684 ? -14.0°
Enters shadow 19:10:23 18° 151° (SSE) 1,101 ? -14.3°
